Regional Weather Roundup
Issued by NWS

Home | Current Version | Previous Version | Graphics & Text | Print | Product List | Glossary On
Versions: 1 2 3 4 5 6 7 8 9 10 11 12 13 14 15 16 17 18 19 20 21 22 23 24 25 26 27 28 29 30 31 32 33 34 35 36 37 38 39 40 41 42 43 44 45 46 47 48 49 50
000
ASUS43 KTOP 150708
RWRKS

WEATHER ROUNDUP FOR KANSAS
NATIONAL WEATHER SERVICE GOODLAND KS
200 AM CDT MON SEP 15 2014

NOTE:  "FAIR" INDICATES FEW OR NO CLOUDS BELOW 12,000 FEET WITH NO
SIGNIFICANT WEATHER AND/OR OBSTRUCTIONS TO VISIBILITY.

KSZ001>006-013>018-027>032-041>047-150800-
NORTHWEST KANSAS

CITY           SKY/WX    TMP DP  RH WIND       PRES   REMARKS
GOODLAND       MOCLDY    56  55  97 CALM      30.04F
HAYS           CLEAR     64  57  77 W6        29.97R
HILL CITY      MOCLDY    59  56  89 CALM      29.98S
RUSSELL        CLEAR     66  61  84 SW13      29.95R
$$

KSZ061>065-074>080-084>089-150800-
SOUTHWEST KANSAS

CITY           SKY/WX    TMP DP  RH WIND       PRES   REMARKS
DODGE CITY     CLEAR     65  59  81 S15       30.02R
ELKHART          N/A    N/A N/A N/A MISG        N/A
GARDEN CITY    CLEAR     64  60  87 S7        30.01S
GREAT BEND     CLEAR     66  61  82 SW10      30.00R
LIBERAL        CLEAR     64  57  77 S12       30.06S
PRATT          PTCLDY    63  59  88 S13       30.03F
$$

KSZ066>073-081>083-090>101-150800-
SOUTHEAST KANSAS

CITY           SKY/WX    TMP DP  RH WIND       PRES   REMARKS
CHANUTE        MOCLDY    67  62  84 S12       30.07F
COFFEYVILLE    MOCLDY    67  63  87 S9        30.09S
HUTCHINSON     MOCLDY    67  60  78 S14       30.00F
MEDICINE LODGE   N/A     66  61  84 S8        30.04S
NEWTON         MOCLDY    66  57  72 S14       30.04S
PARSONS        MOCLDY    67  62  84 S8        30.09F
WICHITA INTL   MOCLDY    68  61  78 S17       30.02F
WICHITA JABRA  MOCLDY    67  61  81 S17G24    30.02F
WICHITA MCCONL MOCLDY    66  65  94 S15       30.04S
WINFIELD       MOCLDY    67  62  84 S14       30.07F
$$

KSZ007>012-019>026-033>040-048>060-102>105-150800-
NORTHEAST KANSAS

CITY           SKY/WX    TMP DP  RH WIND       PRES   REMARKS
CONCORDIA      CLEAR     59  59 100 E3        29.97S
EMPORIA        PTCLDY    64  61  90 S14       30.02F
LAWRENCE       CLEAR     62  57  83 SE7       30.05F
MANHATTAN      CLEAR     66  62  87 S6        30.00S
OLATHE IND     CLOUDY    62  58  86 E7        30.08S
OLATHE EXE     MOCLDY    61  57  87 SE6       30.07S
SALINA         CLEAR     68  60  75 S16       29.96F
TOPEKA BILLARD PTCLDY    63  60  90 E6        30.05R
TOPEKA FORBES  CLEAR     67  61  81 S9        30.03S
$$



USA.gov is the U.S. government's official web portal to all federal, state and local government web resources and services.